IRIDIUM 72

Last updated on Wed Nov 29 2017 00:19:03 GMT+0000 (Coordinated Universal Time)

1 25343U 98032B 17332.49937974 -.00000033 00000-0 -18679-4 0 9990 2 25343 86.3955 155.2284 0001887 88.2888 271.8524 14.34220289 22657
UTC large
Height (km)
Speed (km/s)
/
Latitude / Longitude
Inclination (degrees)
Orbital Period (minutes)
Azimuth
Elevation
Range (km)
Doppler Factor

Next 0 passes for location: London (51.5072 / 0.1276)

Sorry there are no passes over London.